User: anonymous   Login
Location: Dob?e?
(49.9411°N, 15.1496°E)
Time: 04:26:02
(UTC+00:00)
Language:

UKube-1 - Orbit

View from above orbital plane
View from above orbital plane
View from above satellite
View from above satellite

Ground track
Ground track

The orbit data is extracted from the following two-line orbital elements,

1 40074U 14037F   21290.84207394  .00000773  00000-0  98432-4 0  9998
2 40074  98.4142 153.4755 0004662   5.8248 354.3013 14.84673773394061
Epoch (UTC): 17 October 2021 20:12:35
Eccentricity: 0.0004662
inclination: 98.4142°
perigee height: 611 km
apogee height: 618 km
right ascension of ascending node: 153.4755°
argument of perigee: 5.8248°
revolutions per day: 14.84673773
mean anomaly at epoch: 354.3013°
orbit number at epoch: 39406

The dashed part of the orbit path shows where the satellite is in the earth's shadow,  

DLR